Flag for U.S.A. Weather past 2 weeks in Salt Lake City, Utah, U.S.A.

Now
80 °F

Broken clouds.


Feels Like: 79 °F
Forecast: 59 / 73 °F
Wind: No wind

Location: Salt Lake City International Airport

Current Time: Aug 30, 2014 at 8:43:19 PM

Latest Report: Aug 30, 2014 at 7:53 PM


Visibility: 10 mi

Pressure: 29.62 "Hg

Humidity: 22%

Dew point: 38 °F

Location of Salt Lake CityLocation

Historic Weather in Salt Lake City — Graph

°F

Salt Lake City temperature yesterday

Maximum temperature yesterday: 88 °F (at 2:53 PM)
Minimum temperature yesterday: 61 °F (at 6:53 AM)
Average temperature yesterday: 75 °F

Past Weeks' High & Low Weather Summary

 TemperatureHumidityPressure
High93 °F (Aug 17, 4:53 PM)93% (Aug 20, 4:01 AM)30.13 "Hg (Aug 20, 4:01 AM)
Low52 °F (Aug 24, 6:53 AM)11% (Aug 18, 3:53 PM)29.64 "Hg (Aug 30, 6:53 PM)
Average72 °F46%29.88 "Hg
* Reported Aug 15 6:53 PM — Aug 30 6:53 PM, Salt Lake City, Weather by CustomWeather, © 2014

Note: Actual official high and low records may vary slightly from our data, if they occured in-between our weather recording intervals... More about our weather records

Advertising

Salt Lake City weather history for previous 24 hours

 ConditionsComfort  
Time TempWeatherWind HumidityBarometerVisibility
6:53 PM
Aug 30
83 °FBroken clouds.No wind20%29.64 "Hg10 mi
5:53 PM84 °FPartly sunny.12 mph19%29.65 "Hg10 mi
4:53 PM83 °FPartly sunny.8 mph20%29.68 "Hg10 mi
3:53 PM82 °FBroken clouds.12 mph22%29.69 "Hg10 mi
2:53 PM80 °FPartly sunny.14 mph24%29.73 "Hg10 mi
1:53 PM82 °FBroken clouds.15 mph20%29.78 "Hg10 mi
12:53 PM78 °FLight rain. More clouds than sun.16 mph23%29.82 "Hg10 mi
11:53 AM77 °FOvercast.7 mph26%29.80 "Hg10 mi
10:53 AM78 °FMostly cloudy.10 mph25%29.78 "Hg10 mi
9:53 AM75 °FMostly cloudy.9 mph34%29.77 "Hg10 mi
8:53 AM75 °FPartly sunny.9 mph31%29.77 "Hg10 mi
7:53 AM74 °FPartly sunny.9 mph33%29.76 "Hg10 mi
6:53 AM71 °FPassing clouds.8 mph39%29.74 "Hg10 mi
5:53 AM74 °FPassing clouds.12 mph32%29.73 "Hg10 mi
4:53 AM71 °FPassing clouds.8 mph39%29.72 "Hg10 mi
3:53 AM73 °FPassing clouds.13 mph34%29.71 "Hg10 mi
2:53 AM74 °FPassing clouds.17 mph35%29.72 "Hg10 mi
1:53 AM74 °FPassing clouds.14 mph32%29.73 "Hg10 mi
12:53 AM75 °FPassing clouds.12 mph30%29.74 "Hg10 mi
11:53 PM
Aug 29
77 °FPassing clouds.10 mph26%29.78 "Hg10 mi
10:53 PM78 °FPassing clouds.13 mph25%29.78 "Hg10 mi
9:53 PM76 °FPassing clouds.9 mph29%29.80 "Hg10 mi
8:53 PM77 °FPartly sunny.9 mph29%29.80 "Hg10 mi
Weather by CustomWeather, © 2014

See weather overviewHow to use our weather pages